{"data":{"norad_id":47389,"intl_designator":"2021-005AS","name":"STARLINK-2110","alt_names":[],"object_type":"PAYLOAD","status":"ACTIVE","operator":null,"country":"US","launch_date":"2021-01-20","launch_site_code":"AFETR","launch_vehicle":null,"mission":null,"orbit_class":"UNKNOWN","rcs_meters":null,"size_class":null,"mass_kg":null,"dimensions":null,"purposes":["comms"],"wikipedia_slug":null,"has_3d_model":false,"image_url":null,"decayed_at":null,"tle_current":{"epoch":"2026-05-25T03:05:58.729344Z","epoch_age_seconds":60727,"freshness":"FRESH","line1":"1 47389U 21005AS  26145.12915196  .00004737  00000+0  16424-3 0  9991","line2":"2 47389  53.1599  41.2174 0001246  95.2358 264.8785 15.31715615295101","mean_motion":15.31715615,"eccentricity":0.0001246,"inclination_deg":53.1599,"raan_deg":41.2174,"arg_perigee_deg":95.2358,"mean_anomaly_deg":264.8785,"bstar":0.00016424,"rev_number":29510,"period_min":94.012229548238,"perigee_km":469.84008384479,"apogee_km":471.54681239246,"semimajor_km":6848.8304481186,"source":"CELESTRAK","updated_at":"2026-05-25T13:38:16.552898Z"}}}